Time,TemperatureF,DewpointF,PressureIn,WindDirection,WindDirectionDegrees,WindSpeedMPH,WindSpeedGustMPH,Humidity,HourlyPrecipIn,Conditions,Clouds,dailyrainin,SoftwareType,DateUTC
2013-03-04 00:01:00,60.0,41.0,29.47,ESE,115,7.0,17.0,50,0.00,,,0.00,,2013-03-04 06:01:00,
2013-03-04 00:11:00,60.0,41.0,29.47,ESE,115,7.0,17.0,50,0.00,,,0.00,,2013-03-04 06:11:00,
2013-03-04 00:21:00,60.0,42.0,29.46,SE,134,9.0,18.0,51,0.00,,,0.00,,2013-03-04 06:21:00,
2013-03-04 00:32:00,59.0,41.0,29.46,SE,145,9.0,20.0,52,0.00,,,0.00,,2013-03-04 06:32:00,
2013-03-04 00:42:00,59.0,41.0,29.46,SE,145,9.0,20.0,52,0.00,,,0.00,,2013-03-04 06:42:00,
2013-03-04 00:51:00,59.0,42.0,29.44,SSE,158,10.0,22.0,53,0.00,,,0.00,,2013-03-04 06:51:00,
2013-03-04 01:01:00,59.0,42.0,29.44,South,173,12.0,21.0,53,0.00,,,0.00,,2013-03-04 07:01:00,
2013-03-04 01:11:00,59.0,42.0,29.44,South,173,12.0,21.0,53,0.00,,,0.00,,2013-03-04 07:11:00,
2013-03-04 01:21:00,58.0,41.0,29.43,SE,127,12.0,24.0,54,0.00,,,0.00,,2013-03-04 07:21:00,
2013-03-04 01:32:00,58.0,42.0,29.43,SSW,202,10.0,21.0,55,0.00,,,0.00,,2013-03-04 07:32:00,
2013-03-04 01:42:00,58.0,42.0,29.43,SSW,202,10.0,21.0,55,0.00,,,0.00,,2013-03-04 07:42:00,
2013-03-04 01:51:00,58.0,42.0,29.43,South,178,10.0,25.0,55,0.00,,,0.00,,2013-03-04 07:51:00,
2013-03-04 02:02:00,57.0,41.0,29.43,SSW,209,11.0,23.0,55,0.00,,,0.00,,2013-03-04 08:02:00,
2013-03-04 02:11:00,57.0,41.0,29.43,SSW,209,11.0,23.0,55,0.00,,,0.00,,2013-03-04 08:11:00,
2013-03-04 02:22:00,57.0,41.0,29.42,SSE,163,7.0,19.0,56,0.00,,,0.00,,2013-03-04 08:22:00,
2013-03-04 02:32:00,57.0,41.0,29.42,South,180,11.0,24.0,56,0.00,,,0.00,,2013-03-04 08:32:00,
2013-03-04 02:42:00,57.0,41.0,29.42,South,180,11.0,24.0,56,0.00,,,0.00,,2013-03-04 08:42:00,
2013-03-04 02:52:00,56.0,41.0,29.42,SSE,165,9.0,21.0,57,0.00,,,0.00,,2013-03-04 08:52:00,
2013-03-04 03:01:00,56.0,41.0,29.42,SSE,165,9.0,21.0,57,0.00,,,0.00,,2013-03-04 09:01:00,
2013-03-04 03:11:00,56.0,41.0,29.42,SSE,165,9.0,21.0,57,0.00,,,0.00,,2013-03-04 09:11:00,
2013-03-04 03:21:00,56.0,41.0,29.41,SSE,154,9.0,20.0,58,0.00,,,0.00,,2013-03-04 09:21:00,
2013-03-04 03:32:00,55.0,41.0,29.41,South,190,6.0,19.0,59,0.00,,,0.00,,2013-03-04 09:32:00,
2013-03-04 03:42:00,55.0,41.0,29.41,South,190,6.0,19.0,59,0.00,,,0.00,,2013-03-04 09:42:00,
2013-03-04 03:52:00,55.0,41.0,29.40,SSE,168,4.0,14.0,60,0.00,,,0.00,,2013-03-04 09:52:00,
2013-03-04 04:01:00,55.0,41.0,29.40,SSE,148,8.0,17.0,60,0.00,,,0.00,,2013-03-04 10:01:00,
2013-03-04 04:11:00,55.0,41.0,29.40,SSE,148,8.0,17.0,60,0.00,,,0.00,,2013-03-04 10:11:00,
2013-03-04 04:22:00,55.0,42.0,29.39,SSE,164,8.0,18.0,61,0.00,,,0.00,,2013-03-04 10:22:00,
2013-03-04 04:32:00,55.0,42.0,29.39,SSE,162,8.0,15.0,61,0.00,,,0.00,,2013-03-04 10:32:00,
2013-03-04 04:42:00,55.0,42.0,29.39,SSE,162,8.0,15.0,61,0.00,,,0.00,,2013-03-04 10:42:00,
2013-03-04 04:52:00,55.0,42.0,29.39,SSE,157,6.0,15.0,61,0.00,,,0.00,,2013-03-04 10:52:00,
2013-03-04 05:02:00,55.0,42.0,29.40,South,185,5.0,13.0,61,0.00,,,0.00,,2013-03-04 11:02:00,
2013-03-04 05:11:00,55.0,42.0,29.40,South,185,5.0,13.0,61,0.00,,,0.00,,2013-03-04 11:11:00,
2013-03-04 05:22:00,55.0,42.0,29.40,SSE,162,7.0,12.0,61,0.00,,,0.00,,2013-03-04 11:22:00,
2013-03-04 05:32:00,55.0,42.0,29.39,SE,145,5.0,16.0,61,0.00,,,0.00,,2013-03-04 11:32:00,
2013-03-04 05:42:00,55.0,42.0,29.39,SE,145,5.0,16.0,61,0.00,,,0.00,,2013-03-04 11:42:00,
2013-03-04 05:52:00,55.0,42.0,29.39,SSW,195,6.0,13.0,62,0.00,,,0.00,,2013-03-04 11:52:00,
2013-03-04 06:01:00,55.0,42.0,29.39,South,179,7.0,19.0,62,0.00,,,0.00,,2013-03-04 12:01:00,
2013-03-04 06:11:00,55.0,42.0,29.39,South,179,7.0,19.0,62,0.00,,,0.00,,2013-03-04 12:11:00,
2013-03-04 06:22:00,55.0,42.0,29.39,SE,146,6.0,18.0,62,0.00,,,0.00,,2013-03-04 12:22:00,
2013-03-04 06:32:00,55.0,42.0,29.39,ESE,110,6.0,18.0,62,0.00,,,0.00,,2013-03-04 12:32:00,
2013-03-04 06:42:00,55.0,42.0,29.39,ESE,110,6.0,18.0,62,0.00,,,0.00,,2013-03-04 12:42:00,
2013-03-04 06:52:00,55.0,43.0,29.38,SSE,152,6.0,12.0,63,0.00,,,0.00,,2013-03-04 12:52:00,
2013-03-04 07:02:00,54.0,42.0,29.38,SSW,203,5.0,12.0,64,0.00,,,0.00,,2013-03-04 13:02:00,
2013-03-04 07:11:00,54.0,42.0,29.38,SSW,203,5.0,12.0,64,0.00,,,0.00,,2013-03-04 13:11:00,
2013-03-04 07:21:00,54.0,42.0,29.38,SSE,164,6.0,14.0,64,0.00,,,0.00,,2013-03-04 13:21:00,
2013-03-04 07:32:00,54.0,43.0,29.38,SSE,160,4.0,14.0,66,0.00,,,0.00,,2013-03-04 13:32:00,
2013-03-04 07:42:00,54.0,43.0,29.38,SSE,160,4.0,14.0,66,0.00,,,0.00,,2013-03-04 13:42:00,
2013-03-04 07:51:00,54.0,43.0,29.38,SE,130,3.0,13.0,66,0.00,,,0.00,,2013-03-04 13:51:00,
2013-03-04 08:01:00,54.0,43.0,29.38,South,180,4.0,13.0,67,0.00,,,0.00,,2013-03-04 14:01:00,
2013-03-04 08:11:00,54.0,43.0,29.38,South,180,4.0,13.0,67,0.00,,,0.00,,2013-03-04 14:11:00,
2013-03-04 08:22:00,54.0,43.0,29.38,SSE,160,9.0,19.0,67,0.00,,,0.00,,2013-03-04 14:22:00,
2013-03-04 08:32:00,55.0,44.0,29.38,SSE,159,7.0,14.0,67,0.00,,,0.00,,2013-03-04 14:32:00,
2013-03-04 08:42:00,55.0,44.0,29.38,SSE,159,7.0,14.0,67,0.00,,,0.00,,2013-03-04 14:42:00,
2013-03-04 08:52:00,57.0,45.0,29.38,South,181,6.0,14.0,63,0.00,,,0.00,,2013-03-04 14:52:00,
2013-03-04 09:01:00,58.0,45.0,29.37,SSE,150,7.0,15.0,61,0.00,,,0.00,,2013-03-04 15:01:00,
2013-03-04 09:11:00,58.0,45.0,29.37,SSE,150,7.0,15.0,61,0.00,,,0.00,,2013-03-04 15:11:00,
2013-03-04 09:22:00,59.0,44.0,29.37,SSW,213,6.0,13.0,58,0.00,,,0.00,,2013-03-04 15:22:00,
2013-03-04 09:32:00,61.0,44.0,29.38,South,185,4.0,13.0,53,0.00,,,0.00,,2013-03-04 15:32:00,
2013-03-04 09:42:00,61.0,44.0,29.38,South,185,4.0,13.0,53,0.00,,,0.00,,2013-03-04 15:42:00,
2013-03-04 09:52:00,62.0,44.0,29.38,South,179,5.0,13.0,51,0.00,,,0.00,,2013-03-04 15:52:00,
2013-03-04 10:02:00,62.0,44.0,29.38,South,175,4.0,9.0,51,0.00,,,0.00,,2013-03-04 16:02:00,
2013-03-04 10:11:00,62.0,44.0,29.38,South,175,4.0,9.0,51,0.00,,,0.00,,2013-03-04 16:11:00,
2013-03-04 10:21:00,63.0,43.0,29.37,SSE,159,3.0,12.0,48,0.00,,,0.00,,2013-03-04 16:21:00,
2013-03-04 10:32:00,67.0,44.0,29.37,SW,233,7.0,12.0,43,0.00,,,0.00,,2013-03-04 16:32:00,
2013-03-04 10:42:00,67.0,44.0,29.37,SW,233,7.0,12.0,43,0.00,,,0.00,,2013-03-04 16:42:00,
2013-03-04 10:52:00,68.0,43.0,29.37,SE,144,4.0,13.0,40,0.00,,,0.00,,2013-03-04 16:52:00,
2013-03-04 11:02:00,69.0,42.0,29.36,SW,232,3.0,13.0,38,0.00,,,0.00,,2013-03-04 17:02:00,
2013-03-04 11:11:00,69.0,42.0,29.36,SW,232,3.0,13.0,38,0.00,,,0.00,,2013-03-04 17:11:00,
2013-03-04 11:22:00,71.0,43.0,29.36,SSW,202,3.0,9.0,37,0.00,,,0.00,,2013-03-04 17:22:00,
2013-03-04 11:32:00,75.0,41.0,29.36,South,184,7.0,17.0,29,0.00,,,0.00,,2013-03-04 17:32:00,
2013-03-04 11:42:00,75.0,41.0,29.36,South,184,7.0,17.0,29,0.00,,,0.00,,2013-03-04 17:42:00,
2013-03-04 11:52:00,76.0,41.0,29.36,SSW,212,8.0,14.0,28,0.00,,,0.00,,2013-03-04 17:52:00,
2013-03-04 12:01:00,78.0,41.0,29.36,SSW,195,4.0,13.0,27,0.00,,,0.00,,2013-03-04 18:01:00,
2013-03-04 12:11:00,78.0,41.0,29.36,SSW,195,4.0,13.0,27,0.00,,,0.00,,2013-03-04 18:11:00,
2013-03-04 12:21:00,79.0,40.0,29.36,SSW,210,6.0,14.0,25,0.00,,,0.00,,2013-03-04 18:21:00,
2013-03-04 12:32:00,81.0,39.0,29.34,South,175,5.0,12.0,22,0.00,,,0.00,,2013-03-04 18:32:00,
2013-03-04 12:42:00,81.0,39.0,29.34,South,175,5.0,12.0,22,0.00,,,0.00,,2013-03-04 18:42:00,
2013-03-04 12:52:00,80.0,38.0,29.34,SSW,197,5.0,12.0,22,0.00,,,0.00,,2013-03-04 18:52:00,
2013-03-04 13:02:00,82.0,37.0,29.33,South,170,5.0,17.0,20,0.00,,,0.00,,2013-03-04 19:02:00,
2013-03-04 13:11:00,82.0,37.0,29.33,South,170,5.0,17.0,20,0.00,,,0.00,,2013-03-04 19:11:00,
2013-03-04 13:22:00,83.0,38.0,29.33,WSW,246,5.0,12.0,20,0.00,,,0.00,,2013-03-04 19:22:00,
2013-03-04 13:32:00,83.0,36.0,29.31,SW,221,7.0,17.0,19,0.00,,,0.00,,2013-03-04 19:32:00,
2013-03-04 13:42:00,83.0,36.0,29.31,SW,221,7.0,17.0,19,0.00,,,0.00,,2013-03-04 19:42:00,
2013-03-04 13:52:00,83.0,35.0,29.30,SW,233,7.0,14.0,18,0.00,,,0.00,,2013-03-04 19:52:00,
2013-03-04 14:02:00,84.0,34.0,29.30,SW,219,8.0,20.0,17,0.00,,,0.00,,2013-03-04 20:02:00,
2013-03-04 14:11:00,84.0,34.0,29.30,SW,219,8.0,20.0,17,0.00,,,0.00,,2013-03-04 20:11:00,
2013-03-04 14:22:00,84.0,33.0,29.29,South,170,8.0,17.0,16,0.00,,,0.00,,2013-03-04 20:22:00,
2013-03-04 14:32:00,85.0,32.0,29.29,SW,227,8.0,16.0,15,0.00,,,0.00,,2013-03-04 20:32:00,
2013-03-04 14:42:00,85.0,32.0,29.29,SW,227,8.0,16.0,15,0.00,,,0.00,,2013-03-04 20:42:00,
2013-03-04 14:52:00,86.0,33.0,29.28,SW,230,7.0,16.0,15,0.00,,,0.00,,2013-03-04 20:52:00,
2013-03-04 15:02:00,86.0,33.0,29.28,SSE,165,8.0,15.0,15,0.00,,,0.00,,2013-03-04 21:02:00,
2013-03-04 15:12:00,86.0,33.0,29.28,SSE,165,8.0,15.0,15,0.00,,,0.00,,2013-03-04 21:12:00,
2013-03-04 15:22:00,86.0,33.0,29.28,SSW,198,7.0,15.0,15,0.00,,,0.00,,2013-03-04 21:22:00,
2013-03-04 15:32:00,87.0,34.0,29.27,South,181,3.0,12.0,15,0.00,,,0.00,,2013-03-04 21:32:00,
2013-03-04 15:42:00,87.0,34.0,29.27,South,181,3.0,12.0,15,0.00,,,0.00,,2013-03-04 21:42:00,
2013-03-04 15:52:00,87.0,32.0,29.27,SSE,147,7.0,14.0,14,0.00,,,0.00,,2013-03-04 21:52:00,
2013-03-04 16:02:00,87.0,32.0,29.27,SSW,209,7.0,13.0,14,0.00,,,0.00,,2013-03-04 22:02:00,
2013-03-04 16:12:00,87.0,32.0,29.27,SSW,209,7.0,13.0,14,0.00,,,0.00,,2013-03-04 22:12:00,
2013-03-04 16:22:00,85.0,32.0,29.26,South,185,7.0,14.0,15,0.00,,,0.00,,2013-03-04 22:22:00,
2013-03-04 16:32:00,86.0,33.0,29.26,South,190,4.0,12.0,15,0.00,,,0.00,,2013-03-04 22:32:00,
2013-03-04 16:42:00,86.0,33.0,29.26,South,190,4.0,12.0,15,0.00,,,0.00,,2013-03-04 22:42:00,
2013-03-04 16:52:00,86.0,33.0,29.26,SSW,194,6.0,10.0,15,0.00,,,0.00,,2013-03-04 22:52:00,
2013-03-04 17:02:00,86.0,35.0,29.25,SSW,197,5.0,17.0,16,0.00,,,0.00,,2013-03-04 23:02:00,
2013-03-04 17:11:00,86.0,35.0,29.25,SSW,197,5.0,17.0,16,0.00,,,0.00,,2013-03-04 23:11:00,
2013-03-04 17:22:00,85.0,37.0,29.26,SSE,164,5.0,15.0,18,0.00,,,0.00,,2013-03-04 23:22:00,
2013-03-04 17:32:00,84.0,36.0,29.26,South,180,4.0,14.0,18,0.00,,,0.00,,2013-03-04 23:32:00,
2013-03-04 17:42:00,84.0,36.0,29.26,South,180,4.0,14.0,18,0.00,,,0.00,,2013-03-04 23:42:00,
2013-03-04 17:52:00,83.0,40.0,29.26,SE,127,7.0,18.0,22,0.00,,,0.00,,2013-03-04 23:52:00,
2013-03-04 18:02:00,81.0,41.0,29.26,SSW,194,5.0,15.0,24,0.00,,,0.00,,2013-03-05 00:02:00,
2013-03-04 18:11:00,81.0,41.0,29.26,SSW,194,5.0,15.0,24,0.00,,,0.00,,2013-03-05 00:11:00,
2013-03-04 18:21:00,80.0,44.0,29.26,South,181,8.0,15.0,28,0.00,,,0.00,,2013-03-05 00:21:00,
2013-03-04 18:32:00,79.0,44.0,29.27,SSE,165,6.0,15.0,29,0.00,,,0.00,,2013-03-05 00:32:00,
2013-03-04 18:42:00,79.0,44.0,29.27,SSE,165,6.0,15.0,29,0.00,,,0.00,,2013-03-05 00:42:00,
2013-03-04 18:51:00,78.0,44.0,29.28,SSE,164,6.0,15.0,30,0.00,,,0.00,,2013-03-05 00:51:00,
2013-03-04 19:01:00,77.0,44.0,29.28,SSE,147,5.0,10.0,31,0.00,,,0.00,,2013-03-05 01:01:00,
2013-03-04 19:12:00,77.0,44.0,29.28,SSE,147,5.0,10.0,31,0.00,,,0.00,,2013-03-05 01:12:00,
2013-03-04 19:22:00,76.0,45.0,29.28,South,171,4.0,12.0,33,0.00,,,0.00,,2013-03-05 01:22:00,
2013-03-04 19:32:00,75.0,46.0,29.29,South,178,3.0,9.0,36,0.00,,,0.00,,2013-03-05 01:32:00,
2013-03-04 19:42:00,75.0,46.0,29.29,South,178,3.0,9.0,36,0.00,,,0.00,,2013-03-05 01:42:00,
2013-03-04 19:52:00,73.0,47.0,29.29,ESE,120,4.0,11.0,39,0.00,,,0.00,,2013-03-05 01:52:00,
2013-03-04 20:01:00,72.0,48.0,29.30,SE,146,2.0,7.0,42,0.00,,,0.00,,2013-03-05 02:01:00,
2013-03-04 20:11:00,72.0,48.0,29.30,SE,146,2.0,7.0,42,0.00,,,0.00,,2013-03-05 02:11:00,
2013-03-04 20:22:00,71.0,48.0,29.30,SE,126,1.0,5.0,44,0.00,,,0.00,,2013-03-05 02:22:00,
2013-03-04 20:32:00,70.0,48.0,29.30,SE,127,4.0,7.0,45,0.00,,,0.00,,2013-03-05 02:32:00,
2013-03-04 20:42:00,70.0,48.0,29.30,SE,127,4.0,7.0,45,0.00,,,0.00,,2013-03-05 02:42:00,
2013-03-04 20:52:00,71.0,49.0,29.30,SSE,161,4.0,11.0,46,0.00,,,0.00,,2013-03-05 02:52:00,
2013-03-04 21:02:00,70.0,49.0,29.30,South,176,3.0,9.0,47,0.00,,,0.00,,2013-03-05 03:02:00,
2013-03-04 21:12:00,70.0,49.0,29.30,South,176,3.0,9.0,47,0.00,,,0.00,,2013-03-05 03:12:00,
2013-03-04 21:22:00,69.0,49.0,29.31,SE,144,2.0,6.0,49,0.00,,,0.00,,2013-03-05 03:22:00,
2013-03-04 21:32:00,68.0,49.0,29.31,ESE,122,3.0,6.0,50,0.00,,,0.00,,2013-03-05 03:32:00,
2013-03-04 21:42:00,68.0,49.0,29.31,ESE,122,3.0,6.0,50,0.00,,,0.00,,2013-03-05 03:42:00,
2013-03-04 21:52:00,67.0,49.0,29.31,SE,134,1.0,4.0,52,0.00,,,0.00,,2013-03-05 03:52:00,
2013-03-04 22:02:00,66.0,49.0,29.32,SE,140,1.0,4.0,54,0.00,,,0.00,,2013-03-05 04:02:00,
2013-03-04 22:12:00,66.0,49.0,29.32,SE,140,1.0,4.0,54,0.00,,,0.00,,2013-03-05 04:12:00,
2013-03-04 22:22:00,65.0,48.0,29.32,SSE,157,0.0,3.0,55,0.00,,,0.00,,2013-03-05 04:22:00,
2013-03-04 22:32:00,65.0,48.0,29.32,SSE,150,3.0,9.0,54,0.00,,,0.00,,2013-03-05 04:32:00,
2013-03-04 22:42:00,65.0,48.0,29.32,SSE,150,3.0,9.0,54,0.00,,,0.00,,2013-03-05 04:42:00,
2013-03-04 22:52:00,66.0,48.0,29.31,SE,144,5.0,10.0,52,0.00,,,0.00,,2013-03-05 04:52:00,
2013-03-04 23:02:00,66.0,47.0,29.33,SW,228,2.0,10.0,51,0.00,,,0.00,,2013-03-05 05:02:00,
2013-03-04 23:12:00,66.0,47.0,29.33,SW,228,2.0,10.0,51,0.00,,,0.00,,2013-03-05 05:12:00,
2013-03-04 23:22:00,68.0,48.0,29.36,West,267,0.0,15.0,48,0.00,,,0.00,,2013-03-05 05:22:00,
2013-03-04 23:32:00,66.0,47.0,29.37,West,263,0.0,4.0,50,0.00,,,0.00,,2013-03-05 05:32:00,
2013-03-04 23:42:00,66.0,47.0,29.37,West,263,0.0,4.0,50,0.00,,,0.00,,2013-03-05 05:42:00,
2013-03-04 23:52:00,67.0,44.0,29.40,WNW,284,8.0,20.0,43,0.00,,,0.00,,2013-03-05 05:52:00,